TimeEDT,TemperatureF,Dew PointF,Humidity,Sea Level PressureIn,VisibilityMPH,Wind Direction,Wind SpeedMPH,Gust SpeedMPH,PrecipitationIn,Events,Conditions,WindDirDegrees,DateUTC
12:53 AM,71.1,68.0,90,30.06,10.0,Calm,Calm,-,N/A,,Clear,0,2013-04-22 04:53:00
1:53 AM,71.1,68.0,90,30.05,9.0,ENE,4.6,-,N/A,,Mostly Cloudy,70,2013-04-22 05:53:00
2:53 AM,70.0,68.0,93,30.03,9.0,NW,5.8,-,N/A,,Partly Cloudy,320,2013-04-22 06:53:00
3:53 AM,70.0,66.9,90,29.99,10.0,NE,6.9,-,N/A,,Clear,40,2013-04-22 07:53:00
4:53 AM,70.0,66.9,90,30.00,10.0,East,4.6,-,N/A,,Overcast,80,2013-04-22 08:53:00
5:53 AM,69.1,66.0,90,29.98,10.0,East,6.9,-,N/A,,Overcast,80,2013-04-22 09:53:00
6:53 AM,69.1,64.9,87,29.97,10.0,East,5.8,-,N/A,,Mostly Cloudy,90,2013-04-22 10:53:00
7:53 AM,69.1,66.0,90,30.00,9.0,NE,5.8,-,N/A,,Scattered Clouds,50,2013-04-22 11:53:00
8:53 AM,72.0,64.9,78,30.02,10.0,NE,8.1,-,N/A,,Scattered Clouds,50,2013-04-22 12:53:00
9:53 AM,73.9,64.9,73,30.04,10.0,ENE,8.1,-,N/A,,Overcast,70,2013-04-22 13:53:00
10:53 AM,77.0,68.0,74,30.04,10.0,NE,11.5,-,N/A,,Overcast,50,2013-04-22 14:53:00
11:53 AM,79.0,69.1,72,30.04,10.0,East,9.2,-,N/A,,Mostly Cloudy,80,2013-04-22 15:53:00
12:53 PM,82.0,69.1,65,30.02,10.0,Calm,Calm,-,N/A,,Mostly Cloudy,0,2013-04-22 16:53:00
1:53 PM,80.1,69.1,69,30.00,10.0,West,6.9,-,N/A,,Overcast,270,2013-04-22 17:53:00
2:53 PM,82.0,69.1,65,29.98,10.0,WNW,10.4,-,N/A,,Clear,290,2013-04-22 18:53:00
3:53 PM,82.0,69.1,65,29.95,10.0,WNW,10.4,-,N/A,,Partly Cloudy,290,2013-04-22 19:53:00
4:53 PM,82.0,64.0,54,29.94,10.0,NW,10.4,17.3,N/A,,Clear,320,2013-04-22 20:53:00
5:53 PM,81.0,69.1,67,29.95,10.0,WNW,10.4,-,N/A,,Partly Cloudy,300,2013-04-22 21:53:00
6:53 PM,80.1,69.1,69,29.96,10.0,NW,6.9,-,N/A,,Partly Cloudy,310,2013-04-22 22:53:00
7:53 PM,73.9,71.1,91,29.99,7.0,ESE,8.1,-,0.09,Rain,Light Rain,120,2013-04-22 23:53:00
8:53 PM,73.9,71.1,91,30.01,9.0,East,6.9,-,0.00,Rain,Light Rain,100,2013-04-23 00:53:00
9:53 PM,73.0,70.0,90,30.02,10.0,East,6.9,-,0.00,,Mostly Cloudy,80,2013-04-23 01:53:00
10:53 PM,71.1,69.1,93,30.04,10.0,ENE,8.1,-,N/A,,Scattered Clouds,60,2013-04-23 02:53:00
11:53 PM,71.1,66.9,87,30.02,10.0,East,6.9,-,N/A,,Clear,100,2013-04-23 03:53:00